Weather in Uro

Russia / Republic of Buryatia     53°32′50″N   109°50′29″E
temp.,
°C
wind,
m/s
gust,
m/s
humid.,
%
clouds,
%
prec.,
mm/h
press.,
hPa
HPBL,
m
7 may, fri
fri723:00−1s336975 0.0 100950
02:00−1s116473 0.0 100618
05:00−4sw239228 0.0 100857
08:00+1wsw336665 0.0 1009520
11:00+6nne144563 0.0 10091360
14:00+8nw244392 0.0 10081736
17:00+7wsw55505 0.0 1010931
20:00+2sw35652 0.0 1013129
8 may, sat
sat823:00−1sw23765 0.0 101554
02:00−2ssw22761 0.0 101519
05:00−2s11791 0.0 101510
08:00+4nne11550 0.0 1013374
11:00+9wnw224144 0.0 10111181
14:00+11w4533100 0.0 10081737
17:00+9wsw6735100 0.0 10081113
20:00+4sw586021 0.0 1011332
9 may, sun
sun923:00+1ssw357283 0.0 101399
02:00+1sw3475100 0.0 101287
05:00+2sw239066 0.1 1012163
08:00+5wsw247153 0.1 1012611
11:00+8w4557100 0.0 10101311
14:00+9wsw5654100 0.1 10101245
17:00+8wsw456069 0.0 1009850
20:00+5s227241 0.0 100932
10 may, mon
mon1023:00+3sse2279100 0.0 101020
02:00+3ese2275100 0.0 100921
05:00+3ene1176100 0.0 100926
08:00+2ne1297100 2.8 1010176
11:00+2nnw1197100 5.0 1010262
14:00+2wsw2499100 8.7 1011212
17:00+1sw35100100 4.6 1011195
20:000sw2499100 9.6 1011195
11 may, tue
tue1123:000sw2399100 6.6 1010181
02:00−1sw1299100 13.1 1010110
05:00−1sw119999 2.1 101050
08:00+1nne01100100 2.2 101099
11:00+3w11100100 0.0 1011136
14:00+3wsw34100100 0.1 1011230
17:00+3sw4699100 0.0 1012315
20:00+2sw4698100 0.0 1014239